Location: Carrigahorig
(53.0625°N, 8.1439°W)
Time: 23:25:18
(UTC+00:00)

Cosmos 2333 Rocket - Pass Details

Date: 15 May 2026
Orbit: 841 x 862 km, 70.8° (Epoch: 6 June)

Event Time Altitude Azimuth Distance (km) Brightness Sun altitude
Rises 23:17:44 0° 316° (NW) 3,425 6.5 -16.3°
Reaches altitude 10° 23:21:28 10° 292° (WNW) 2,488 5.2 -16.4°
Maximum altitude 23:24:09 14° 264° (W) 2,237 4.5 -16.5°
Drops below altitude 10° 23:26:50 10° 235° (SW) 2,486 4.4 -16.6°
Enters shadow 23:28:31 - 222° (SW) 2,850 4.6 -16.7°
